Regional Weather Roundup
Issued by NWS Wakefield, VA

Home | Current Version | Previous Version | Graphics & Text | Print | Product List | Glossary On
Versions: 1 2 3 4 5 6 7 8 9 10 11 12 13 14 15 16 17 18 19 20 21 22 23 24 25 26 27
000
ASUS41 KAKQ 092215
RWRAKQ

REGIONAL WEATHER ROUNDUP
NATIONAL WEATHER SERVICE WAKEFIELD VA
500 PM EST FRI DEC 09 2016

Note: "fair" indicates few or no clouds below 12,000 feet with no
significant weather and/or obstructions to visibility. * = Denotes
station may not report precipitation (e.g., rain,snow,etc.),
thunder or fog.

VAZ042-051-052>054-056-092300-
NORTHERN VIRGINIA

CITY           SKY/WX    TMP DP  RH WIND       PRES   REMARKS
WASH NATIONAL  PTCLDY    36  16  44 W10G21    30.38R
DULLES         PTCLDY    32  15  49 NW18      30.38R WCI  20
FORT BELVOIR   CLEAR     35  15  43 NW10      30.38R
QUANTICO       CLEAR     36  16  44 N6        30.41R
FREDERICKSBRG* CLEAR     37  16  42 NW9       30.39R
STAFFORD*      CLEAR     34  15  45 NW12      30.43R
WARRENTON      CLEAR     33  10  38 NW9       30.39R
CULPEPER*      CLEAR     35  15  43 NW7       30.40R
MANASSAS*      PTCLDY   N/A N/A N/A N12G17    30.40R
LEESBURG*      MOCLDY    32  21  64 W14G20    30.39R WCI  22
WINCHESTER     CLOUDY    30  16  55 W10G18    30.38R WCI  21
FRONT ROYAL*   FAIR      32  16  51 NW8       30.38R
LURAY*         FAIR      32  18  55 NW13G20   30.38S WCI  22
$$

VAZ048-049-060>072-079>083-092300-
CENTRAL AND SOUTH CENTRAL VIRGINIA

CITY           SKY/WX    TMP DP  RH WIND       PRES   REMARKS
RICHMOND       PTCLDY    37  12  35 NW8       30.38R
CHESTERFIELD*  FAIR      36   7  30 NW9       30.40R
PETERSBURG*    CLEAR     35  12  38 W3        30.39S
HANOVER        PTCLDY    37  13  37 NW8       30.39R
TAPPAHANNOCK*  CLEAR     38   7  27 W6        30.38R
QUINTON*       FAIR      37  13  38 NW3       30.38R
CHARLOTTSVILLE PTCLDY    36  11  35 NW8       30.39R
GORDONSVILLE*  FAIR      35  11  37 NW7       30.38R
ORANGE*          N/A     36  10  35 W5        30.40R
LOUISA*        CLEAR     39  14  35 NW7       30.37R
BUMPASS*       FAIR      35  11  36 NW3       30.38R
FARMVILLE*     PTCLDY    38  15  39 CALM      30.38R
CREWE*         FAIR      35  14  42 NW3       30.38S
FORT PICKETT*  FAIR      35   4  27 CALM      30.38S
CHASE CITY*    FAIR      35  12  38 W3        30.40R
CLARKSVILLE*   FAIR      34  14  44 W6        30.40R
SOUTH HILL*    CLEAR     34  15  47 CALM      30.45R
LAWRENCEVILLE* FAIR      35  12  38 CALM      30.38S
EMPORIA*       CLEAR     34  14  44 W5        30.41S
$$

VAZ088>098-092300-
SOUTHEAST VIRGINIA

CITY           SKY/WX    TMP DP  RH WIND       PRES   REMARKS
NORFOLK        CLEAR     39  16  39 NW3       30.36R
VIRGINIA BEACH CLEAR     38  15  39 NW16      30.35R
NORFOLK NAVAL  PTCLDY    38  15  39 NW14      30.38R
WEST POINT*    CLEAR     37  11  33 NW7       30.39R
SALUDA*        FAIR      38  16  40 NW12G20   30.36R
NEWPORT NEWS   CLEAR     37  14  38 NW8       30.37R
LANGLEY AFB    PTCLDY    38  15  39 W8        30.36R
FORT EUSTIS    CLEAR     38  16  40 NW15      30.35R
WILLIAMSBURG*  CLEAR     39  18  41 CALM      30.38R
HR EXEC AP*    FAIR      37  14  38 NW5       30.36R
FRANKLIN*      CLEAR     37  15  41 NW5       30.39R
US460-WAKEFLD  CLEAR     37  14  38 NW3       30.39R
$$

VAZ020-022-025-037-045-092300-
WEST CENTRAL AND SOUTHWEST VIRGINIA

CITY           SKY/WX    TMP DP  RH WIND       PRES   REMARKS
STAUNTON*      CLEAR     28  11  49 NW9       30.40R
WAYNESBORO*    FAIR      29   8  41 W7        30.37R
HOT SPRINGS VA CLOUDY    18   9  68 NW7G17    30.22S
LYNCHBURG      CLEAR     33  11  39 VRB5      30.40R
DANVILLE       CLEAR     34  14  43 NW7       30.42R
SOUTH BOSTON*  FAIR      35  11  37 W7        30.41R
MARTINSVILLE   CLEAR     32  10  40 N8        30.44R
ROANOKE        PTCLDY    29  11  47 NW13      30.43R WCI  19
BLACKSBURG     PTCLDY    25  12  56 NW12      30.39S WCI  15
DUBLIN*        CLEAR     26  13  57 W8        30.39R
MARION*        CLEAR     23  11  61 W10       30.39S WCI  12
HILLSVILLE*    CLEAR     24  12  62 W10G17    30.32R WCI  13
RICHLANDS*     FAIR      20  12  71 NW3       30.38S
WISE*          PTCLDY    23  12  63 NW3       30.40R
ABINGDON*      CLEAR     28  13  53 N5        30.41S
$$

MDZ021>025-VAZ099-100-092300-
SOUTHERN MARYLAND AND THE DELMARVA PENINSULA

CITY           SKY/WX    TMP DP  RH WIND       PRES   REMARKS
PATUXENT RIVER CLEAR     36  16  44 NW17      30.35R
BAY BRIDGE APT PTCLDY    37  19  48 MISG      30.34R
LEONARDTOWN    CLEAR     36  16  44 W12G21    30.37R
DOVER          CLEAR     36  18  48 W14       30.29R
GEORGETOWN     PTCLDY    37  16  42 VRB7      30.31R
EASTON         PTCLDY    37  16  41 NW15G23   30.36R
CAMBRIDGE      PTCLDY    36  19  51 NW10G20   30.33R
SALISBURY      CLEAR     36  17  46 NW8       30.32R
OCEAN CITY     PTCLDY    36  18  48 NW8       30.31R
WALLOPS ISLAND CLEAR     36  18  48 NW10      30.34R
ACCOMACK*      MOCLDY    38  19  46 NW12G21   30.34R
$$

NCZ012>017-030>032-092300-
NORTH CENTRAL AND EASTERN NORTH CAROLINA

CITY           SKY/WX    TMP DP  RH WIND       PRES   REMARKS
ROANOKE RAPIDS FAIR      37  18  44 NW3       30.39S
RALEIGH        PTCLDY    37  11  34 VRB3      30.41R
ELIZABETH CITY CLEAR     37  17  44 NW9       30.38R
AHOSKIE*       CLEAR     37  14  39 NW3       30.39R
EDENTON*       CLEAR     40  19  42 CALM      30.39R
CURRITUCK*     CLEAR     39  17  41 NW5       30.37R
KILL DEVIL HLS CLEAR     39  23  54 NW6       30.35R
MANTEO         PTCLDY    39  19  45 NW7       30.36R
CAPE HATTERAS  CLEAR     39  21  48 VRB5      30.36R
TARBORO*       NOT AVBL
GOLDSBORO      CLEAR     39  14  36 NW8       30.39R
WASHINGTON     CLEAR     38  17  42 NW5       30.39R
GREENVILLE     CLEAR     39  18  41 NW3       30.39S
NEW BERN       CLEAR     39  19  44 NW9       30.40R
WILMINGTON     CLEAR     41  21  44 N7        30.39R
$$

VAZ048-092300-
ELSEWHERE

CITY           SKY/WX    TMP DP  RH WIND       PRES   REMARKS
HARRISBURG PA  PTCLDY    33  19  56 W18G24    30.29R WCI  22
BALTIMORE      PTCLDY    34  17  50 W13       30.34R WCI  25
ANNAPOLIS      PTCLDY    38  17  42 W9G16     30.35R
ANDREWS AFB    PTCLDY    34  15  45 NW16      30.35R WCI  24
PHILADELPHIA   PTCLDY    37  16  42 W14G24    30.27R
HENDERSON NC   CLEAR     33  11  40 NW3       30.40R
GREENSBORO     CLEAR     37  13  37 NW8       30.39R
ROCKY MOUNT    CLEAR     37  17  44 NW7       30.41R
$$

VAZ100-092300-
MARINE

STATION/POSITION TIME  TEMP    WIND        PRES    WAVE   SWELL
                       AIR SEA DIR/SP/G            HT/PER HT/PER
                 (UTC) (F)     (DEG/KT/KT) (MB)    (FT/S) (FT/S)
BRANDYWINE LGT   2148   37     320/ 23/ 27   N/A
CAPE MAY NJ      2148   38 42  310/ 21/ 28 1024.8R
LEWES DE         2148   38 45  300/ 17/ 19 1025.6R
OCEAN-CITY-INLET 2148          330/ 10/ 12   N/A
WACHAPREAGUE VA  2148   38 45  260/  3/  9 1027.3R
THOMAS POINT MD  2200   37 46  290/ 19/ 23   N/A
GOOSES REEF MD   2150   39     290/ 17/ 23 1028.6R
COVE POINT MD    2148   37     330/ 21/ 25 1028.3R
SOLOMONS ISLAND  2148          290/ 11/ 17   N/A
BISHOPS HEAD MD  2148   38 40  310/ 17/ 20 1027.7R
PINEY POINT MD   2148          350/ 20/ 23   N/A
POTOMAC MD       2150   40     320/ 19/ 23 1027.3R
CAMBRIDGE MD     2148   38 44  300/ 17/ 20 1026.5R
LEWISETTA VA     2148   39 45  340/ 10/ 15 1027.8R
RAPPAHANNOCK LGT 2148          310/ 18/ 22 1028.1R
STINGRAY PT      2150   40     320/ 17/ 19 1028.5R
YORK RVR RNG VA  2148   40     320/ 14/ 16 1027.7R
YORKTOWN VA      2148   40 49  290/ 14/ 17 1027.8R
JAMESTOWN VA     2150   40     300/ 12/ 16   N/A
DOMINION TERM VA 2148   41     320/ 13/ 18 1028.3R
KIPTOPEKE VA     2148          320/ 16/ 21   N/A
CHES BAY BRIDGE  2148   40 50  320/ 18/ 22 1027.9R
CAPE HENRY VA    2148   40     310/ 20/ 25   N/A
WILLOUBY STN VA  2148   40     310/ 16/ 18 1029.1R
S CRANEY ISL VA  2148   40     330/ 12/ 18 1027.9R
CAPE HENRY BUOY  2142      53                N/A     4/ 4
1ST LANDING BUOY 2150   41                 1028.1R
CAPE CHARLES BUO 2156      53                N/A     3/ 3
OFFSHORE WE BUOY 2151      55                N/A     5/ 6
64NM E OF VA BCH 2150   42 59  310/ 19/ 27 1026.3R   6/ 7   2/15
DUCK PIER NC     2148   40 53  330/ 14/ 17 1027.4R
44100 DUCK FRF   2135      55                N/A     5/ 6   2/17
OREGON INLET NC  2136   39 51  300/ 11/ 14 1027.8R
HATTERAS NC      2148   41 54  320/ 12/ 18 1027.6R
DIAMOND SHLS NC  2150   42 75  340/ 17/ 23 1027.4R   5/10   3/10
CAPE LOOKOUT NC  2100   42     330/ 11/ 13 1027.4R
$$




USA.gov is the U.S. government's official web portal to all federal, state and local government web resources and services.